Location: Grand Rapids
(42.9630°N, 85.6680°W)
Time: 21:39:21
(UTC-04:00)

Vanguard 1 Rocket - Visible Passes

Search period start: 19 June 2025 00:00
Search period end: 29 June 2025 00:00
Orbit: 651 x 4216 km, 34.3° (Epoch: 19 June)

Date Brightness Start Highest point End Pass type
(mag) Time Alt. Az. Time Alt. Az. Time Alt. Az.
19 Jun 8.9 05:23:31 10° SSW 05:27:05 19° SSE 05:31:43 10° ESE visible
21 Jun 8.7 05:23:32 10° SSW 05:27:18 23° SSE 05:32:17 10° ESE visible
22 Jun 8.8 04:14:29 11° SSE 04:15:45 12° SSE 04:17:38 10° SE visible
23 Jun 8.4 05:23:44 10° SW 05:27:36 26° SSE 05:32:45 10° ESE visible
24 Jun 8.5 04:14:55 15° S 04:15:58 16° SSE 04:18:56 10° ESE visible
25 Jun 8.1 05:24:03 10° SW 05:27:58 29° SSE 05:33:08 10° ESE visible
26 Jun 8.2 04:15:19 18° S 04:16:18 19° SSE 04:19:48 10° ESE visible
27 Jun 7.9 05:24:27 10° SW 05:28:24 31° S 05:33:29 10° ESE visible
28 Jun 7.9 04:15:44 21° S 04:16:42 23° SSE 04:20:29 10° ESE visible
